Location: Holyhead Bay
(53.3667°N, 4.6667°W)
Time: 05:35:37
(UTC+00:00)

Sich 1 - Pass Details

Date: 24 November 2020
Orbit: 593 x 626 km, 82.5° (Epoch: 23 January)

Event Time Altitude Azimuth Distance (km) Brightness Sun altitude
Rises 18:33:58 0° 343° (NNW) 2,918 6.6 -20.7°
Reaches altitude 10° 18:36:19 10° 337° (NNW) 2,003 5.9 -21.0°
Maximum altitude 18:40:27 40° 268° (W) 918 4.4 -21.6°
Drops below altitude 10° 18:44:32 10° 199° (SSW) 1,970 5.9 -22.3°
Sets 18:46:49 0° 192° (SSW) 2,865 6.7 -22.6°
